International Skating Union - Official Site

ISU World Cup Inzell
December 4-6, 2015

Draw | Lap Times | Index | World Cup

Referee: Erik  ØSMUNDSET  (NOR)
Starter: Jouko  VESTERLUND  (FIN)
StartTime: EndTime: Air Temp: Ice Temp: Humidity:
16:45 17:05 13.4 ℃ -6.3 ℃ 31%
Result Team Pursuit Ladies
Rankings as of Dec 6 2015 6:51PM
Rank: No.: Team: Nation: Time: Behind: Points:
Total 8
1 7 Japan (241) Miho Takagi (242) Nana Takagi (240) Misaki Oshigiri (237) Ayaka Kikuchi JPN JPN 2:59.080.5 - 18.57 - (18.5)
1.0 - 32.99 - (14.4)
1.5 - 47.38 - (14.3)
2.0 - 1:01.85 - (14.4)
2.5 - 1:16.48 - (14.6)
3.0 - 1:30.80 - (14.3)
3.5 - 1:45.02 - (14.2)
4.0 - 1:59.52 - (14.5)
4.5 - 2:14.08 - (14.5)
5.0 - 2:29.02 - (14.9)
5.5 - 2:44.03 - (15.0)
6.0 - 2:59.08 - (15.0)
100
2 10 Netherlands (262) Marrit Leenstra (255) Antoinette de Jong (260) Marije Joling NED NED 2:59.690.5 - 19.23 - (19.2)
1.0 - 33.65 - (14.4)
1.5 - 47.77 - (14.1)
2.0 - 1:01.84 - (14.0)
2.5 - 1:16.29 - (14.4)
3.0 - 1:30.58 - (14.2)
3.5 - 1:45.03 - (14.4)
4.0 - 1:59.70 - (14.6)
4.5 - 2:14.66 - (14.9)
5.0 - 2:29.56 - (14.9)
5.5 - 2:44.64 - (15.0)
6.0 - 2:59.69 - (15.0)
0.61 80
3 6 Russia (291) Natalya Voronina (285) Olga Graf (287) Elizaveta Kazelina (289) Margarita Ryzhova RUS RUS 3:00.360.5 - 19.36 - (19.3)
1.0 - 33.67 - (14.3)
1.5 - 48.07 - (14.3)
2.0 - 1:02.35 - (14.2)
2.5 - 1:16.94 - (14.5)
3.0 - 1:31.34 - (14.4)
3.5 - 1:46.12 - (14.7)
4.0 - 2:00.64 - (14.5)
4.5 - 2:15.63 - (14.9)
5.0 - 2:30.59 - (14.9)
5.5 - 2:45.55 - (14.9)
6.0 - 3:00.36 - (14.8)
1.28 70
4 8 Poland (282) Luiza Zlotkowska (277) Natalia Czerwonka (280) Katarzyna Wozniak (278) Aleksandra Goss POL POL 3:02.200.5 - 19.16 - (19.1)
1.0 - 33.85 - (14.6)
1.5 - 48.10 - (14.2)
2.0 - 1:02.35 - (14.2)
2.5 - 1:16.79 - (14.4)
3.0 - 1:31.29 - (14.5)
3.5 - 1:45.87 - (14.5)
4.0 - 2:00.89 - (15.0)
4.5 - 2:15.94 - (15.0)
5.0 - 2:31.33 - (15.3)
5.5 - 2:46.41 - (15.0)
6.0 - 3:02.20 - (15.7)
3.12 60
5 9 Germany (231) Claudia Pechstein (228) Roxanne Dufter (229) Gabriele Hirschbichler (230) Bente Kraus GER GER 3:02.580.5 - 18.95 - (18.9)
1.0 - 33.42 - (14.4)
1.5 - 47.86 - (14.4)
2.0 - 1:02.60 - (14.7)
2.5 - 1:17.19 - (14.5)
3.0 - 1:32.00 - (14.8)
3.5 - 1:46.99 - (14.9)
4.0 - 2:01.93 - (14.9)
4.5 - 2:17.04 - (15.1)
5.0 - 2:32.23 - (15.1)
5.5 - 2:47.34 - (15.1)
6.0 - 3:02.58 - (15.2)
3.50 50
6 5 Canada (207) Ivanie Blondin (212) Josie Spence (214) Isabelle Weidemann (213) Brianne Tutt CAN CAN 3:02.700.5 - 19.24 - (19.2)
1.0 - 33.45 - (14.2)
1.5 - 47.44 - (13.9)
2.0 - 1:01.79 - (14.3)
2.5 - 1:16.18 - (14.3)
3.0 - 1:31.06 - (14.8)
3.5 - 1:46.26 - (15.2)
4.0 - 2:01.44 - (15.1)
4.5 - 2:16.60 - (15.1)
5.0 - 2:32.12 - (15.5)
5.5 - 2:47.42 - (15.2)
6.0 - 3:02.70 - (15.2)
3.62 45
7 4 Korea (250) Seon-Yeong Noh (251) Do-Young Park (252) Ji-Woo Park KOR KOR 3:05.270.5 - 19.25 - (19.2)
1.0 - 33.45 - (14.2)
1.5 - 47.73 - (14.2)
2.0 - 1:02.29 - (14.5)
2.5 - 1:17.34 - (15.0)
3.0 - 1:32.24 - (14.8)
3.5 - 1:47.35 - (15.1)
4.0 - 2:02.51 - (15.1)
4.5 - 2:18.15 - (15.6)
5.0 - 2:33.76 - (15.6)
5.5 - 2:49.62 - (15.8)
6.0 - 3:05.27 - (15.6)
6.19 40
8 3 China (218) Jing Liu (220) Xin Zhao (215) Jiachen Hao CHN CHN 3:06.360.5 - 19.42 - (19.4)
1.0 - 34.20 - (14.7)
1.5 - 48.77 - (14.5)
2.0 - 1:03.41 - (14.6)
2.5 - 1:18.23 - (14.8)
3.0 - 1:33.44 - (15.2)
3.5 - 1:49.05 - (15.6)
4.0 - 2:04.82 - (15.7)
4.5 - 2:20.21 - (15.3)
5.0 - 2:35.71 - (15.5)
5.5 - 2:50.91 - (15.1)
6.0 - 3:06.36 - (15.4)
7.28 35